User: anonymous   Login
Location: Unspecified
(0.0000°N, 0.0000°E)
Time: 09:03:27
(UTC+00:00)
Language:

Nadezhda 4 - Orbit

View from above orbital plane
View from above orbital plane
View from above satellite
View from above satellite

Ground track
Ground track

The orbit data is extracted from the following two-line orbital elements,

1 23179U 94041A   24104.85929895  .00000090  00000-0  75628-4 0  9997
2 23179  82.9441 256.8739 0035943 150.6119 321.1779 13.76680023494226
Epoch (UTC): 13 April 2024 20:37:23
Eccentricity: 0.0035943
inclination: 82.9441°
perigee height: 949 km
apogee height: 1002 km
right ascension of ascending node: 256.8739°
argument of perigee: 150.6119°
revolutions per day: 13.76680023
mean anomaly at epoch: 321.1779°
orbit number at epoch: 49422

The dashed part of the orbit path shows where the satellite is in the earth's shadow,  

DLR